Location: Izdebno
(52.6670°N, 16.2170°E)
Time: 11:06:54
(UTC+02:00)

A-11 Canister half - Pass Details

Date: 27 February 2024
Orbit: 1513 x 1686 km, 47.2° (Epoch: 24 April)

Event Time Altitude Azimuth Distance (km) Brightness Sun altitude
Exits shadow 04:54:30 24° 261° (W) 2,948 9.8 -17.9°
Maximum altitude 05:01:02 63° 189° (S) 1,799 9.2 -16.9°
Drops below altitude 10° 05:10:35 10° 111° (ESE) 3,811 12.1 -15.5°
Sets 05:13:40 0° 109° (ESE) 4,772 12.8 -15.0°
